Fremont, NE

6:22 PM CDT on May 26, 2017 (GMT -0500)
Fremont Municipal

Weather History for KFET - October, 2013

Change the Weather History Date:

Thursday, October 3, 2013

  Actual Average Record
Temperature  
Mean Temperature 68 °F -  
Max Temperature 77 °F 73 °F 92 °F (1956)
Min Temperature 60 °F 46 °F 29 °F (1987)
Cooling Degree Days 4    
Growing Degree Days 18 (Base 50)    
Moisture  
Dew Point 62 °F    
Average Humidity 84    
Maximum Humidity 100    
Minimum Humidity 60    
Precipitation  
Precipitation 1.31 in - - ()
Sea Level Pressure  
Sea Level Pressure 29.79 in    
Wind  
Wind Speed 5 mph (NE)    
Max Wind Speed 25 mph    
Max Gust Speed 34 mph    
Visibility 9 miles    
Events Rain , Thunderstorm    
Averages and records for this station are not official NWS values.
T = Trace of Precipitation, MM = Missing Value Source: NWS Daily Summary

Daily Weather History Graph

Daily Weather History Graph

Search for Another Location

Airport or City:

Trip Planner

Search our weather history database for the weather conditions in past years. The results will help you decide how hot, cold, wet, or windy it might be!

Date:

Astronomy

Oct. 03, 2013 Rise Set
Actual Time 7:25 AM CDT 7:04 PM CDT
Civil Twilight 6:57 AM CDT 7:31 PM CDT
Nautical Twilight 6:25 AM CDT 8:03 PM CDT
Astronomical Twilight 5:53 AM CDT 8:35 PM CDT
Moon 5:59 AM CDT (10/3) 6:13 PM CDT (10/3)
Length of Visible Light 12h 34m
Length of Day
11h 38m
Waning Crescent, 2% of the Moon is Illuminated
Oct 3
Waning Crescent
Oct 4
New
Oct 11
First Quarter
Oct 18
Full
Oct 26
Last Quarter

Hourly Weather History & Observations

Time (CDT) Temp. Dew Point Humidity Pressure Visibility Wind Dir Wind Speed Gust Speed Precip Events Conditions
12:15 AM 62.6 °F 62.4 °F 99% 29.88 in 2.5 mi NNE 6.9 mph - 0.37 in Rain , Thunderstorm Heavy Thunderstorms and Rain
12:35 AM 62.2 °F 62.2 °F 100% 29.86 in 7.0 mi NE 5.8 mph - 0.46 in Rain , Thunderstorm Rain
12:55 AM 62.2 °F 62.2 °F 100% 29.86 in 7.0 mi Calm Calm - 0.49 in Rain , Thunderstorm Thunderstorms and Rain
1:15 AM 62.2 °F 62.2 °F 100% 29.88 in 10.0 mi SW 8.1 mph - 0.02 in Rain , Thunderstorm Thunderstorms and Rain
1:35 AM 62.6 °F 62.6 °F 100% 29.89 in 7.0 mi SW 5.8 mph - 0.08 in Rain , Thunderstorm Thunderstorms and Rain
1:55 AM 62.8 °F 62.8 °F 100% 29.88 in 7.0 mi WSW 5.8 mph - 0.13 in Rain , Thunderstorm Heavy Thunderstorms and Rain
2:15 AM 62.6 °F 62.6 °F 100% 29.89 in 4.0 mi Calm Calm - 0.10 in Rain , Thunderstorm Heavy Thunderstorms and Rain
2:35 AM 62.6 °F 62.6 °F 100% 29.88 in 4.0 mi Calm Calm - 0.19 in Rain , Thunderstorm Rain
2:55 AM 62.2 °F 62.2 °F 100% 29.87 in 10.0 mi Calm Calm - 0.23 in Rain , Thunderstorm Thunderstorms and Rain
3:15 AM 62.2 °F 62.2 °F 100% 29.86 in 7.0 mi Calm Calm - 0.04 in Rain , Thunderstorm Rain
3:35 AM 62.6 °F 62.6 °F 100% 29.84 in 7.0 mi SE 5.8 mph - 0.11 in Rain , Thunderstorm Thunderstorms and Rain
3:55 AM 62.2 °F 62.2 °F 100% 29.83 in 7.0 mi ESE 6.9 mph - 0.17 in Rain Rain
4:15 AM 62.1 °F 62.1 °F 100% 29.83 in 10.0 mi SSE 10.4 mph - 0.07 in Rain , Thunderstorm Thunderstorms and Rain
4:35 AM 61.9 °F 61.9 °F 100% 29.81 in 10.0 mi SSE 17.3 mph - 0.12 in Rain , Thunderstorm Rain
4:55 AM 61.9 °F 61.3 °F 98% 29.72 in 10.0 mi ESE 25.3 mph 29.9 mph 0.16 in Rain , Thunderstorm Light Thunderstorms and Rain
5:15 AM 63.1 °F 60.4 °F 91% 29.81 in 10.0 mi WNW 12.7 mph 34.5 mph 0.01 in   Mostly Cloudy
5:35 AM 62.4 °F 60.8 °F 94% 29.79 in 10.0 mi SSE 3.5 mph - 0.01 in   Scattered Clouds
5:55 AM 61.7 °F 60.8 °F 97% 29.79 in 10.0 mi Calm Calm - 0.01 in   Clear
6:15 AM 61.3 °F 61.0 °F 99% 29.79 in 10.0 mi Calm Calm - N/A   Clear
6:35 AM 61.0 °F 61.0 °F 100% 29.79 in 10.0 mi Calm Calm - N/A   Clear
6:55 AM 60.8 °F 60.8 °F 100% 29.81 in 10.0 mi North 3.5 mph - N/A Thunderstorm Clear
7:15 AM 61.0 °F 60.6 °F 99% 29.81 in 10.0 mi North 4.6 mph - N/A   Clear
7:35 AM 60.8 °F 60.4 °F 99% 29.79 in 10.0 mi NNE 4.6 mph - N/A   Clear
7:55 AM 60.6 °F 60.6 °F 100% 29.79 in 10.0 mi NE 4.6 mph - N/A   Clear
8:15 AM 60.8 °F 60.8 °F 100% 29.79 in 10.0 mi Calm Calm - N/A   Clear
8:35 AM 61.0 °F 61.0 °F 100% 29.79 in 10.0 mi Calm Calm - N/A   Clear
8:55 AM 61.3 °F 61.2 °F 99% 29.78 in 10.0 mi Calm Calm - N/A   Clear
9:15 AM 62.1 °F 61.7 °F 99% 29.79 in 10.0 mi Calm Calm - N/A   Clear
9:35 AM 62.6 °F 61.9 °F 97% 29.79 in 10.0 mi Calm Calm - N/A   Clear
9:55 AM 63.5 °F 62.2 °F 96% 29.79 in 10.0 mi Calm Calm - N/A   Clear
10:15 AM 65.1 °F 63.0 °F 93% 29.79 in 10.0 mi Calm Calm - N/A   Clear
10:35 AM 66.4 °F 63.3 °F 90% 29.79 in 10.0 mi Calm Calm - N/A   Clear
10:55 AM 67.5 °F 62.6 °F 84% 29.79 in 10.0 mi Calm Calm - N/A   Clear
11:15 AM 69.8 °F 63.0 °F 79% 29.80 in 10.0 mi Calm Calm - N/A   Clear
11:35 AM 71.6 °F 61.9 °F 71% 29.79 in 10.0 mi Calm Calm - N/A   Clear
11:55 AM 71.6 °F 62.2 °F 72% 29.79 in 10.0 mi ESE 3.5 mph - N/A   Clear
12:15 PM 73.8 °F 61.7 °F 66% 29.77 in 10.0 mi ESE 4.6 mph - N/A   Clear
12:35 PM 74.1 °F 61.5 °F 65% 29.77 in 10.0 mi ESE 3.5 mph - N/A   Clear
12:55 PM 75.0 °F 62.2 °F 64% 29.77 in 10.0 mi NE 3.5 mph - N/A   Clear
1:15 PM 75.9 °F 62.1 °F 62% 29.77 in 10.0 mi East 5.8 mph - N/A   Scattered Clouds
1:35 PM 75.7 °F 61.9 °F 62% 29.76 in 10.0 mi ESE 4.6 mph - N/A   Scattered Clouds
1:55 PM 77.4 °F 62.6 °F 60% 29.76 in 10.0 mi East 5.8 mph - N/A   Scattered Clouds
2:15 PM 76.5 °F 62.1 °F 61% 29.75 in 10.0 mi Calm Calm - N/A   Mostly Cloudy
2:35 PM 76.5 °F 63.0 °F 63% 29.75 in 10.0 mi NE 3.5 mph - N/A   Overcast
2:55 PM 75.6 °F 62.6 °F 64% 29.75 in 10.0 mi NE 5.8 mph - N/A   Overcast
3:15 PM 76.1 °F 62.4 °F 62% 29.76 in 10.0 mi NNE 9.2 mph - N/A   Mostly Cloudy
3:35 PM 77.0 °F 63.1 °F 62% 29.75 in 10.0 mi NE 8.1 mph - N/A   Mostly Cloudy
3:55 PM 75.7 °F 62.6 °F 64% 29.76 in 10.0 mi North 9.2 mph - N/A   Overcast
4:15 PM 74.3 °F 62.2 °F 66% 29.76 in 10.0 mi NNE 10.4 mph - N/A   Overcast
4:35 PM 75.0 °F 62.2 °F 64% 29.76 in 10.0 mi North 8.1 mph - N/A   Mostly Cloudy
4:55 PM 75.2 °F 61.9 °F 63% 29.76 in 10.0 mi NE 10.4 mph - N/A   Scattered Clouds
5:15 PM 74.7 °F 61.3 °F 63% 29.77 in 10.0 mi NE 10.4 mph - N/A   Mostly Cloudy
5:35 PM 74.1 °F 60.8 °F 63% 29.77 in 10.0 mi NE 10.4 mph - N/A   Overcast
5:55 PM 73.8 °F 61.3 °F 65% 29.77 in 10.0 mi NE 8.1 mph - N/A   Overcast
6:15 PM 73.0 °F 62.4 °F 69% 29.77 in 10.0 mi NNE 6.9 mph - N/A   Mostly Cloudy
6:35 PM 72.5 °F 62.2 °F 70% 29.77 in 10.0 mi NNE 6.9 mph - N/A   Overcast
6:55 PM 71.2 °F 62.6 °F 74% 29.78 in 10.0 mi North 6.9 mph - N/A   Overcast
7:15 PM 70.2 °F 62.2 °F 76% 29.78 in 10.0 mi NNE 5.8 mph - N/A   Overcast
7:35 PM 69.6 °F 62.1 °F 77% 29.78 in 10.0 mi NNE 4.6 mph - N/A   Mostly Cloudy
7:55 PM 68.9 °F 62.2 °F 79% 29.78 in 10.0 mi NNE 3.5 mph - N/A   Scattered Clouds
8:15 PM 68.0 °F 62.1 °F 81% 29.78 in 10.0 mi NNE 4.6 mph - N/A   Clear
8:35 PM 67.3 °F 62.1 °F 83% 29.78 in 10.0 mi Calm Calm - N/A   Clear
8:55 PM 66.6 °F 62.1 °F 85% 29.78 in 10.0 mi NE 4.6 mph - N/A   Clear
9:15 PM 66.4 °F 62.2 °F 86% 29.77 in 10.0 mi NE 5.8 mph - N/A   Clear
9:35 PM 66.9 °F 62.4 °F 85% 29.78 in 10.0 mi ENE 6.9 mph - N/A   Clear
9:55 PM 67.6 °F 62.2 °F 83% 29.77 in 10.0 mi NE 6.9 mph - N/A   Clear
10:15 PM 68.4 °F 62.1 °F 80% 29.76 in 10.0 mi NE 8.1 mph - N/A   Clear
10:35 PM 68.9 °F 61.9 °F 78% 29.74 in 10.0 mi ENE 12.7 mph 16.1 mph N/A   Mostly Cloudy
11:35 PM 67.3 °F 63.7 °F 88% 29.76 in 4.0 mi East 8.1 mph - 0.10 in Rain , Thunderstorm Heavy Thunderstorms and Rain
11:55 PM 66.4 °F 64.6 °F 94% 29.76 in 10.0 mi NNE 10.4 mph - 0.12 in Rain , Thunderstorm Light Thunderstorms and Rain